Weather History for KGKJ - November, 2013

Change the Weather History Date:

Wednesday, November 13, 2013

  Actual Average Record
Temperature  
Mean Temperature 30 °F -  
Max Temperature 34 °F 46 °F 70 °F (1949)
Min Temperature 26 °F 30 °F 19 °F (1983)
Degree Days  
Heating Degree Days 35    
Moisture  
Dew Point 20 °F    
Average Humidity 72    
Maximum Humidity 88    
Minimum Humidity 54    
Precipitation  
Precipitation 0.07 in - - ()
Sea Level Pressure  
Sea Level Pressure 30.41 in    
Wind  
Wind Speed 7 mph (WSW)    
Max Wind Speed 14 mph    
Max Gust Speed 23 mph    
Visibility 8 miles    
Events Snow    
Averages and records for this station are not official NWS values.
T = Trace of Precipitation, MM = Missing Value Source: NWS Daily Summary

Daily Weather History Graph

Daily Weather History Graph

Search for Another Location

Airport or City:

Trip Planner

Search our weather history database for the weather conditions in past years. The results will help you decide how hot, cold, wet, or windy it might be!

Date:

Astronomy

Nov. 13, 2013 Rise Set
Actual Time 7:07 AM EST 5:02 PM EST
Civil Twilight 6:37 AM EST 5:31 PM EST
Nautical Twilight 6:04 AM EST 6:05 PM EST
Astronomical Twilight 5:31 AM EST 6:38 PM EST
Moon 2:51 PM EST (11/13) 2:56 AM EST (11/13)
Length of Visible Light 10h 53m
Length of Day
9h 54m
Waxing Gibbous, 84% of the Moon is Illuminated
Nov 13
Waxing Gibbous
Nov 17
Full
Nov 25
Last Quarter
Dec 2
New
Dec 9
First Quarter

Hourly Weather History & Observations

Time (EST) Temp. Windchill Dew Point Humidity Pressure Visibility Wind Dir Wind Speed Gust Speed Precip Events Conditions
12:17 AM 26.6 °F 19.1 °F 21.2 °F 80% 30.40 in 8.0 mi Variable 6.9 mph - 0.00 in Snow Light Snow
12:29 AM 26.6 °F 20.0 °F 21.2 °F 80% 30.40 in 2.5 mi WNW 5.8 mph - 0.00 in Snow Light Snow
12:37 AM 26.6 °F 20.0 °F 23.0 °F 86% 30.40 in 1.8 mi West 5.8 mph - 0.00 in Snow Light Snow
12:39 AM 26.6 °F 20.0 °F 21.2 °F 80% 30.40 in 2.5 mi West 5.8 mph - 0.00 in Snow Light Snow
12:46 AM 26.6 °F 21.2 °F 21.2 °F 80% 30.40 in 8.0 mi West 4.6 mph - 0.00 in Snow Light Snow
12:53 AM 26.1 °F 20.5 °F 21.9 °F 84% 30.45 in 9.0 mi WNW 4.6 mph - 0.00 in Snow Light Snow
1:14 AM 26.6 °F - 21.2 °F 80% 30.40 in 2.5 mi Calm Calm - 0.00 in Snow Light Snow
1:41 AM 26.6 °F 19.1 °F 21.2 °F 80% 30.40 in 1.2 mi WNW 6.9 mph - 0.00 in Snow Light Snow
1:53 AM 26.1 °F 20.5 °F 23.0 °F 88% 30.45 in 1.0 mi West 4.6 mph - 0.00 in Snow Light Snow
2:17 AM 26.6 °F 20.0 °F 21.2 °F 80% 30.40 in 3.0 mi West 5.8 mph - 0.00 in Snow Light Snow
2:25 AM 26.6 °F 20.0 °F 21.2 °F 80% 30.40 in 5.0 mi West 5.8 mph - 0.00 in Snow Light Snow
2:39 AM 26.6 °F 20.0 °F 21.2 °F 80% 30.40 in 1.8 mi West 5.8 mph - 0.00 in Snow Light Snow
2:48 AM 26.6 °F 21.2 °F 21.2 °F 80% 30.40 in 3.0 mi West 4.6 mph - 0.00 in Snow Light Snow
2:53 AM 26.1 °F 20.5 °F 21.9 °F 84% 30.45 in 4.0 mi West 4.6 mph - 0.00 in Snow Light Snow
3:16 AM 26.6 °F - 21.2 °F 80% 30.40 in 9.0 mi Calm Calm - 0.00 in Snow Light Snow
3:37 AM 26.6 °F - 21.2 °F 80% 30.40 in 7.0 mi Calm Calm - 0.00 in Snow Light Snow
3:53 AM 26.1 °F 20.5 °F 21.0 °F 81% 30.45 in 9.0 mi West 4.6 mph - 0.00 in   Overcast
4:53 AM 27.0 °F 19.5 °F 21.0 °F 78% 30.46 in 4.0 mi West 6.9 mph - 0.00 in Snow Light Snow
5:03 AM 26.6 °F 20.0 °F 21.2 °F 80% 30.41 in 1.8 mi WNW 5.8 mph - 0.00 in Snow Light Snow
5:11 AM 26.6 °F 20.0 °F 21.2 °F 80% 30.41 in 2.0 mi WNW 5.8 mph - 0.00 in Snow Light Snow
5:21 AM 26.6 °F 20.0 °F 21.2 °F 80% 30.41 in 7.0 mi West 5.8 mph - 0.00 in Snow Light Snow
5:29 AM 26.6 °F 20.0 °F 21.2 °F 80% 30.41 in 9.0 mi West 5.8 mph - 0.00 in Snow Light Snow
5:53 AM 27.0 °F 19.5 °F 21.0 °F 78% 30.46 in 9.0 mi West 6.9 mph - 0.00 in Snow Light Snow
6:53 AM 28.0 °F 19.3 °F 19.0 °F 69% 30.47 in 10.0 mi West 9.2 mph - 0.00 in   Overcast
7:41 AM 26.6 °F 18.2 °F 19.4 °F 74% 30.43 in 10.0 mi West 8.1 mph - N/A   Overcast
7:53 AM 27.0 °F 16.7 °F 19.9 °F 75% 30.48 in 10.0 mi WSW 11.5 mph - N/A   Overcast
8:53 AM 28.0 °F 18.6 °F 17.1 °F 63% 30.49 in 10.0 mi West 10.4 mph 23.0 mph N/A   Partly Cloudy
9:53 AM 28.9 °F 18.2 °F 19.0 °F 67% 30.50 in 10.0 mi WSW 13.8 mph 17.3 mph N/A   Overcast
10:43 AM 30.2 °F 23.4 °F 19.4 °F 64% 30.44 in 10.0 mi SW 6.9 mph - N/A   Overcast
10:53 AM 28.9 °F 18.2 °F 19.9 °F 69% 30.50 in 10.0 mi WSW 13.8 mph - N/A   Overcast
11:01 AM 30.2 °F 23.4 °F 21.2 °F 69% 30.45 in 10.0 mi WSW 6.9 mph - N/A   Overcast
11:24 AM 28.4 °F 19.7 °F 21.2 °F 74% 30.44 in 10.0 mi WSW 9.2 mph 18.4 mph N/A   Overcast
11:53 AM 30.0 °F 23.2 °F 21.0 °F 69% 30.48 in 10.0 mi SW 6.9 mph - N/A   Overcast
12:44 PM 30.2 °F 21.9 °F 21.2 °F 69% 30.41 in 10.0 mi SW 9.2 mph - N/A   Overcast
12:53 PM 30.0 °F 23.2 °F 21.0 °F 69% 30.45 in 10.0 mi WSW 6.9 mph - N/A   Overcast
1:27 PM 32.0 °F 23.0 °F 19.4 °F 60% 30.39 in 10.0 mi WSW 11.5 mph 19.6 mph 0.03 in   Scattered Clouds
1:53 PM 32.0 °F 23.6 °F 19.0 °F 59% 30.43 in 10.0 mi SW 10.4 mph - 0.05 in   Clear
2:53 PM 33.1 °F 24.9 °F 18.0 °F 54% 30.41 in 10.0 mi WSW 10.4 mph 18.4 mph 0.02 in   Clear
3:53 PM 34.0 °F 26.6 °F 19.0 °F 54% 30.39 in 10.0 mi WSW 9.2 mph 16.1 mph N/A   Clear
4:53 PM 32.0 °F 23.6 °F 19.0 °F 59% 30.38 in 10.0 mi SW 10.4 mph - N/A   Clear
5:53 PM 30.9 °F 22.2 °F 19.0 °F 61% 30.38 in 10.0 mi SSW 10.4 mph 18.4 mph N/A   Clear
6:53 PM 30.9 °F 22.2 °F 19.0 °F 61% 30.36 in 10.0 mi SSW 10.4 mph - N/A   Clear
7:53 PM 30.9 °F 22.2 °F 19.9 °F 64% 30.35 in 10.0 mi SW 10.4 mph - N/A   Clear
8:53 PM 30.0 °F 20.0 °F 19.0 °F 64% 30.34 in 10.0 mi SSW 12.7 mph - N/A   Clear
9:53 PM 30.0 °F 19.5 °F 18.0 °F 61% 30.32 in 10.0 mi SSW 13.8 mph - N/A   Clear
10:53 PM 30.0 °F 20.0 °F 17.1 °F 59% 30.30 in 10.0 mi SSW 12.7 mph 20.7 mph N/A   Clear
11:53 PM 30.0 °F 20.0 °F 17.1 °F 59% 30.28 in 10.0 mi SSW 12.7 mph 23.0 mph N/A   Clear